Tracking 29892 objects as of 21-Nov-2024
HD Live streaming from Space Station
objects crossing your sky now

STARLINK-3226

Track STARLINK-3226 now!
10-day predictions
STARLINK-3226 is classified as:


NORAD ID: 49740
Int'l Code: 2021-115S
Perigee: 546.0 km
Apogee: 547.8 km
Inclination: 53.2 °
Period: 95.4 minutes
Semi major axis: 6917 km
RCS: Unknown
Launch date: December 2, 2021
Source: United States (US)
Launch site: AIR FORCE EASTERN TEST RANGE (AFETR)
Your satellite tracking list
Your tracking list is empty




NASA's NSSDC Master Catalog

Two Line Element Set (TLE):
1 49740U 21115S   24325.80565761 -.00000223  00000-0  40678-5 0  9996
2 49740  53.2161 116.4404 0001293  88.8629 271.2512 15.08834481163990
Source of the keplerian elements: AFSPC